Regional Weather Roundup
Issued by NWS

Home | Current Version | Previous Version | Graphics & Text | Print | Product List | Glossary On
Versions: 1 2 3 4 5 6 7 8 9 10 11 12 13 14 15 16 17 18 19 20 21 22 23 24 25 26 27 28 29 30 31 32 33 34 35 36 37 38 39 40 41 42 43 44 45 46 47 48 49 50
000
ASUS43 KLMK 292002
RWRKY
KENTUCKY REGIONAL WEATHER ROUNDUP
NATIONAL WEATHER SERVICE LOUISVILLE KY
400 PM EDT MON JUN 29 2015

NOTE "FAIR" INDICATES FEW OR NO CLOUDS BELOW 12,000 FEET
WITH NO SIGNIFICANT WEATHER AND/OR OBSTRUCTIONS TO VISIBILITY.

KYZ001>023-026-027-061>063-070>075-292100-
WESTERN AND SOUTH CENTRAL KENTUCKY

CITY           SKY/WX    TMP DP  RH WIND       PRES   REMARKS
PADUCAH        MOSUNNY   87  67  51 NW13      29.84F HX  90
HENDERSON      MOSUNNY   82  66  57 W15G21    29.81F
OWENSBORO      PTSUNNY   85  68  56 W14       29.82F
HOPKINSVILLE   MOSUNNY   86  71  60 SW17      29.85F HX  91
BOWLING GREEN  MOSUNNY   86  70  58 SW15      29.83F HX  90
GLASGOW        NOT AVBL
$$

KYZ024-025-028>034-038-045-046-053-292100-
NORTH CENTRAL KENTUCKY

CITY           SKY/WX    TMP DP  RH WIND       PRES   REMARKS
LOUISVILLE/SDF PTSUNNY   83  67  58 W21G28    29.78F
LOUISVILLE/LOU PTSUNNY   80  72  76 VRB6      29.80F
FORT KNOX      MOSUNNY   81  69  65 VRB7      29.79F
$$

KYZ035>037-039>044-047>052-055>060-089>105-292100-
NORTHEAST KENTUCKY

CITY           SKY/WX    TMP DP  RH WIND       PRES   REMARKS
LEXINGTON      PTSUNNY   76  68  76 S10       29.81F
COVINGTON      MOSUNNY   79  66  64 SW10G18   29.79F
FRANKFORT      LGT RAIN  74  67  78 W10G18    29.80F
$$

KYZ054-064>069-076>088-106>120-292100-
SOUTHEAST KENTUCKY

CITY           SKY/WX    TMP DP  RH WIND       PRES   REMARKS
JACKSON        PTSUNNY   78  63  59 S8        29.87F
LONDON         PTSUNNY   75  66  73 SW6       29.88F
SOMERSET       NOT AVBL
MIDDLESBORO    MOSUNNY   81  64  55 S9G21     29.92F
MONTICELLO     PTCLDY    84  69  60 S17       29.88F
$$



USA.gov is the U.S. government's official web portal to all federal, state and local government web resources and services.